[Iaude] MPEC W06: 2023 VD10 [a=1.57,e=0.35,i=7.8,H=26.6]
    mpec at marsden.cfa.harvard.edu 
    mpec at marsden.cfa.harvard.edu
       
    Thu Nov 16 06:50:13 EST 2023
    
    
  
M.P.E.C. 2023-W06                             Issued 2023 November 16, 11:48 UT
     The Minor Planet Electronic Circulars contain information on unusual
         minor planets, routine data on comets and natural satellites,
         and occasional editorial announcements.  They are published
    on behalf of Division F of the International Astronomical Union by the
          Minor Planet Center, Smithsonian Astrophysical Observatory,
                          Cambridge, MA 02138, U.S.A.
			  
             Prepared using the Tamkin Foundation Computer Network
                              MPC at CFA.HARVARD.EDU
            URL https://www.minorplanetcenter.net/    ISSN 1523-6714
                                   2023 VD10                                    
Observations:
     K23V10D* C2023 11 15.29996803 01 56.892+28 02 58.20         21.30GVEW006V00
     K23V10D  C2023 11 15.30637503 01 58.321+28 03 55.98         21.15GVEW006V00
     K23V10D  C2023 11 15.31188003 01 59.552+28 04 45.48         20.99GVEW006V00
     K23V10D  C2023 11 15.31738103 02 00.762+28 05 34.40         21.34GVEW006V00
     K23V10D KC2023 11 15.36086 03 02 10.52 +28 12 00.3          20.8 RVEW006291
     K23V10D KC2023 11 15.36469 03 02 11.41 +28 12 34.7          21.1 RVEW006291
     K23V10D KC2023 11 15.36852 03 02 12.26 +28 13 08.1          21.3 RVEW006291
     K23V10D  C2023 11 15.37310603 02 12.837+28 13 40.48         20.9 GVEW006H01
     K23V10D  C2023 11 15.37672803 02 13.692+28 14 12.09         21.2 GVEW006H01
     K23V10D  C2023 11 15.38813603 02 16.368+28 15 51.60         21.1 GVEW006H01
     K23V10D  C2023 11 15.39455003 02 17.903+28 16 47.52         20.8 GVEW006H01
     K23V10D 1C2023 11 15.80582 03 04 24.03 +29 16 06.3          20.7 VXEW006033
     K23V10D 1C2023 11 15.80749 03 04 24.44 +29 16 21.1          21.1 VXEW006033
     K23V10D 1C2023 11 15.80916 03 04 24.86 +29 16 35.6          20.8 VXEW006033
     K23V10D KC2023 11 15.90840103 04 48.94 +29 31 06.9          20.9 GVEW006L06
     K23V10D KC2023 11 15.90867103 04 48.95 +29 31 08.9          20.9 GVEW006L06
     K23V10D KC2023 11 15.90988403 04 49.29 +29 31 19.3          21.0 GVEW006L06
     K23V10D KC2023 11 15.98289 03 05 05.39 +29 41 41.4          20.5 GVEW006104
     K23V10D KC2023 11 16.00366 03 05 10.14 +29 44 33.1                VEW006104
     K23V10D KB2023 11 16.16653 03 06 01.14 +30 07 17.0          21.0 GVEW006734
     K23V10D KB2023 11 16.17852 03 06 03.83 +30 09 00.3          20.9 GVEW006734
     K23V10D KB2023 11 16.19052 03 06 06.47 +30 10 39.2          20.8 GVEW006734
     K23V10D KC2023 11 16.22617103 06 13.04 +30 15 33.6          21.8 GVEW006H21
     K23V10D KC2023 11 16.23176203 06 14.23 +30 16 19.2          21.6 GVEW006H21
     K23V10D KC2023 11 16.23856503 06 15.73 +30 17 14.9          21.6 GVEW006H21
Observer details:
033 Karl Schwarzschild Observatory, Tautenburg.  Observers S. Melnikov, C.
    Hogner, F. Ludwig, M. Hartmann, B. Stecklum.  Measurer B. Stecklum.
    1.34-m f/3 Schmidt + CCD.
104 San Marcello Pistoiese.  Observers P. Bacci, M. Maestripieri.  Measurer P.
    Bacci.  0.60-m f/4.0 reflector + CCD.
291 LPL/Spacewatch II.  Observer T. H. Bressi.  1.8-m f/2.7 reflector + CCD.
734 Farpoint Observatory, Eskridge.  Observers D. Cromer, G. Hug, D. Goodin,
    R. Valentine.  Measurer D. Cromer.  0.69-m f/3.54 reflector + CMO.
H01 Magdalena Ridge Observatory, Socorro.  Observers W. H. Ryan, E. V. Ryan.
    Measurer W. H. Ryan.  2.4-m f/8.9 Ritchey-Chretien + CCD.
H21 Astronomical Research Observatory, Westfield.  Observer R. Holmes.
    Measurers T. Linder, R. Holmes, L. Horn.  0.76-m f/3.0 astrograph + CCD.
L06 Sormano 2 Observatory, Bellagio Via Lattea.  Observers E. Valli, G.
    Ventre.  Measurer P. Sicoli.  0.36m Schmidt Cassegrain + CCD.
V00 Kitt Peak-Bok.  Observer R. A. Mastaler.  Measurers M. J. Brucker, C. E.
    Woodward, D. Fay, J. B. Fazekas, D. C. Fuls, A. R. Gibbs, H. Groeller, J.
    K. Hogan, R. A. Kowalski, S. M. Larson, C. Lejoly, G. J. Leonard, R. A.
    Mastaler, R. S. McMillan, D. Rankin, R. L. Seaman, A. Serrano, F. C.
    Shelly, K. W. Wierzchos.  2.25-m reflector + 4x4K mosaic CCD.
Orbital elements:
2023 VD10                                                Earth MOID = 0.0399 AU
Epoch 2023 Sept. 13.0 TT = JDT 2460200.5                Veres                   
M 340.10281              (2000.0)            P               Q                  
n   0.50282928     Peri.  338.30481     +0.89327252     -0.43790487             
a   1.5662305      Node    48.07813     +0.42987912     +0.76617396             
e   0.3487275      Incl.    7.84091     +0.13140836     +0.47033690             
P   1.96           H   26.67          G   0.15           U   8                  
Residuals in seconds of arc
231115 V00  0.1-  0.1-    231115 H01  0.1-  0.1-    231116 104  0.5+  0.4-
231115 V00  0.0   0.1+    231115 H01  0.1+  0.1+    231116 734  0.4-  1.2-
231115 V00  0.1+  0.2+    231115 033  0.0   0.0     231116 734  0.1-  1.4+
231115 V00  0.1-  0.1-    231115 033  0.1-  0.1+    231116 734  0.1-  0.0
231115 291  0.2-  0.1-    231115 033  0.0   0.0     231116 H21  0.1+  0.0
231115 291  0.0   0.6+    231115 L06  0.6+  0.0     231116 H21  0.2-  0.1-
231115 291  0.3-  0.4+    231115 L06  0.1-  0.3-    231116 H21  0.1+  0.1+
231115 H01  0.1-  0.0     231115 L06  0.7+  0.3-
231115 H01  0.0   0.1-    231115 104  0.5-  0.4+
Ephemeris:
2023 VD10                a,e,i = 1.57, 0.35, 8                   q = 1.0200
Date    TT    R. A. (2000) Decl.     Delta      r    Elong.  Phase     V
2023 10 17    23 26 33.0 -62 21 22   0.08286 1.0216   105.1    70.4    23.8
...
2023 11 01    01 30 32.4 -30 38 26   0.04532 1.0244   133.5    44.7    21.7
...
2023 11 09    02 27 44.3 +06 27 27   0.04508 1.0349   168.0    11.5    20.7
...
2023 11 15    03 00 32.3 +27 17 10   0.05801 1.0465   170.1     9.4    21.2
2023 11 16    03 05 11.7 +29 44 34   0.06089 1.0488   168.1    11.2    21.4
2023 11 17    03 09 38.3 +31 57 15   0.06393 1.0511   166.3    12.9    21.6
...
2023 11 23    03 32 19.0 +41 14 06   0.08459 1.0668   158.5    19.8    22.4
...
2023 12 01    03 54 07.8 +47 09 42   0.1165  1.0919   153.7    23.6    23.3
...
2023 12 16    04 20 26.5 +50 01 04   0.1866  1.1495   149.9    25.4    24.5
M. P. C. Staff               (C) Copyright 2023 MPC           M.P.E.C. 2023-W06
    
    
More information about the Iaude
mailing list